SCP
0 0 0 0 0 0 0 0 0 0 0 0 0 0 0 0 0 -0 -0 0 0 0 -0 0 0 -0 -0 -0 0 0 0 0 -0 -0 -0 -0 0 0 0 1 1 1 0
0 0 0 0 0 0 0 0 0 0 0 0 0 0 0 0 0 0 -0 0 0 0 0 0 0 0 0 0 0 0 0 0 0 -0 -0 0 -0 -0 0 1 1 0 0
0 1 0 0 0 0 0 0 0 0 0 0 0 0 0 0 0 0 0 -0 0 0 0 0 0 0 0 0 0 0 0 0 -0 -0 -0 -0 0 0 0 0 0 1 -0
1 1 1 0 1 0 0 1 1 0 0 0 0 0 0 0 0 -0 0 0 0 0 0 0 0 0 0 0 0 0 0 0 0 0 0 0 -0 0 -0 -0 -0 -0 -0
0 1 0 1 1 1 1 1 1 1 0 1 0 0 0 0 0 0 0 0 0 0 0 0 0 0 0 0 0 0 0 0 0 0 -0 -0 -0 -0 -0 -0 -0 -0 -0
0 1 1 0 1 0 1 1 1 1 1 1 1 1 1 0 0 0 0 0 0 0 0 0 0 0 0 0 0 0 0 0 0 0 0 0 0 -0 -0 -0 0 0 0
0 0 0 0 0 0 1 1 1 1 1 1 1 1 0 0 0 0 0 0 1 1 1 0 0 0 0 0 1 0 -0 -0 0 0 0 0 0 0 0 0 0 0 0
0 0 0 0 0 0 0 1 1 1 1 1 2 0 0 0 0 0 0 0 1 1 1 1 1 0 0 0 0 1 0 0 0 0 0 0 1 1 1 0 0 0 0
0 0 0 0 0 0 0 0 0 0 0 0 0 0 0 0 0 0 0 2 1 1 0 0 0 0 0 0 0 0 0 0 0 0 0 0 0 0 0 0 0 0 0
0 0 0 0 0 0 0 0 0 0 0 0 0 0 0 0 0 0 0 0 2 1 0 0 0 0 0 0 0 0 0 0 0 0 0 0 0 0 0 0 1 0 0
0 0 0 0 0 0 0 0 0 0 0 0 0 0 0 0 0 0 0 0 0 0 0 0 0 0 0 0 0 0 0 0 0 0 0 0 0 0 0 1 0 1 1
0 0 0 0 0 0 0 0 0 0 0 0 0 0 0 0 0 0 0 0 0 0 0 0 0 0 0 0 0 0 0 0 0 0 0 0 0 0 0 0 0 0 1
0 0 0 0 0 0 0 0 0 0 0 0 -0 -0 -0 0 0 0 0 0 0 0 0 0 0 0 0 0 0 0 0 0 0 0 0 0 0 0 0 0 0 0 0
0 0 0 0 0 0 0 0 0 0 0 0 0 0 0 0 0 0 0 0 0 0 0 0 0 0 0 0 0 0 0 0 0 0 0 0 0 0 0 0 0 0 0
0 0 0 0 0 0 0 0 0 0 0 0 0 0 0 0 0 0 0 0 0 0 0 0 0 0 0 0 0 0 0 0 0 0 0 0 0 0 0 0 0 0 0
0 0 0 0 0 0 0 0 0 0 0 0 0 0 0 0 0 0 0 0 0 0 0 0 0 0 0 0 0 0 0 0 0 0 0 0 0 0 0 0 0 0 0
0 0 0 0 0 0 0 0 0 0 0 0 0 0 0 0 0 0 0 0 0 0 0 0 0 0 0 0 0 0 0 0 0 0 0 0 0 0 0 0 0 0 0
0 0 0 0 0 0 0 0 0 0 0 0 0 0 0 0 0 0 0 0 0 0 0 0 0 0 0 0 0 0 0 0 0 0 0 0 0 0 0 0 0 0 0
0 0 0 0 0 0 0 0 0 0 0 0 0 0 0 0 0 0 0 0 0 0 0 0 0 0 0 0 0 0 0 0 0 0 0 0 0 0 0 0 0 0 0
0 0 0 0 0 0 0 0 0 0 0 0 0 0 0 0 0 0 0 0 0 0 0 0 0 0 0 0 0 0 0 0 0 0 0 0 0 0 0 0 0 0 0
0 0 0 0 0 0 0 0 0 0 0 0 0 0 0 0 0 0 0 0 0 0 0 0 0 0 0 0 0 0 0 0 0 0 0 0 0 0 0 0 0 0 0
0 0 0 0 0 0 0 0 0 0 0 0 0 0 0 0 0 0 0 0 0 0 0 0 0 0 0 0 0 0 0 0 0 0 0 0 0 0 0 0 0 0 0
0 0 0 0 0 0 0 0 0 0 0 0 0 0 0 0 0 0 0 0 0 0 0 0 0 0 0 0 0 0 0 0 0 0 0 0 0 0 0 0 0 0 0
0 0 0 0 0 0 0 0 0 0 0 0 0 0 0 0 0 0 0 0 0 0 0 0 0 0 0 0 0 0 0 0 0 0 0 0 0 0 0 0 0 0 0
0 0 0 0 0 0 0 0 0 0 0 0 0 0 0 0 0 0 0 0 0 0 0 0 0 0 0 0 0 0 0 0 0 0 0 0 0 0 0 0 0 0 0
0 0 0 0 0 0 0 0 0 0 0 0 0 0 0 0 0 0 0 0 0 0 0 0 0 0 0 0 0 0 0 0 0 0 0 0 0 0 0 0 0 0 0
Wind_Speed_500mb
47 33 35 32 26 29 24 24 30 28 23 28 24 21 25 29 23 22 26 26 28 21 29 23 14 23 31 23 17 17 16 24 36 35 41 40 31 27 33 42 38 33 31
48 44 41 35 30 18 25 16 15 26 29 31 24 28 27 23 22 24 20 18 18 16 21 23 27 25 26 25 19 19 22 24 28 31 31 34 26 26 31 40 34 32 41
48 51 43 44 41 32 23 24 19 18 15 26 26 27 28 27 28 27 25 24 23 22 15 21 22 22 26 25 24 25 24 25 29 27 28 21 30 32 30 21 20 30 36
48 49 45 40 31 29 25 22 27 20 14 14 23 22 23 21 23 21 24 24 25 18 21 21 19 23 23 29 24 21 17 27 16 25 36 35 27 18 23 31 27 28 36
55 31 16 27 25 29 26 26 27 29 22 18 17 20 16 17 24 26 25 27 19 20 22 19 23 23 22 28 31 24 25 30 27 29 35 32 30 40 45 41 39 44 46
45 46 46 20 29 31 38 36 30 28 32 31 26 25 22 33 33 33 28 21 20 19 19 21 23 21 32 23 23 24 23 29 35 37 39 39 38 41 45 44 45 47 45
28 26 25 25 26 23 18 21 26 36 35 31 28 31 37 43 37 33 28 28 26 20 22 24 25 24 18 28 32 25 24 27 29 30 38 42 47 42 43 45 45 47 55
23 21 22 18 25 33 26 26 27 32 36 33 34 39 39 40 35 35 37 34 34 37 42 30 32 36 33 32 31 35 38 36 31 35 38 42 43 47 52 56 59 61 61
17 16 13 12 17 21 26 21 27 29 32 33 32 32 23 19 24 26 27 31 31 30 32 35 37 32 33 33 34 37 37 37 33 35 40 40 40 37 38 39 40 40 48
31 21 11 11 15 19 15 13 13 30 23 23 28 29 27 26 14 11 16 18 8 2 7 8 13 16 17 17 16 16 18 23 27 27 24 24 29 30 32 33 35 37 37
24 21 20 13 12 12 19 16 15 14 19 19 17 23 24 17 14 15 17 15 8 20 13 4 10 11 10 12 14 16 19 22 22 23 29 32 27 18 21 26 35 35 34
35 41 33 25 18 19 16 16 14 19 19 11 11 11 12 13 12 11 14 16 20 22 24 21 15 8 10 15 18 20 22 23 17 22 24 23 29 25 23 29 29 30 30
28 33 33 22 22 19 25 22 17 15 8 11 11 8 3 10 10 9 7 8 11 16 12 14 15 17 18 19 21 15 18 14 21 17 15 20 21 25 28 28 27 26 30
15 17 19 20 22 21 20 22 21 24 26 19 19 17 16 24 12 11 14 16 17 20 20 21 21 14 6 5 5 3 4 14 17 18 25 30 33 31 27 30 39 42 43
14 9 10 14 17 21 23 28 29 26 30 27 26 27 22 21 11 12 19 22 24 25 22 17 16 17 18 16 18 17 19 23 23 30 32 24 24 24 23 26 30 35 40
13 11 5 1 7 14 27 32 27 23 32 35 33 36 26 32 30 24 15 9 6 6 7 6 5 11 11 9 11 13 17 24 23 23 23 25 30 30 32 25 23 26 27
13 19 11 18 8 9 11 11 18 25 26 34 38 38 33 25 17 10 5 8 16 20 16 4 10 9 7 7 9 12 14 21 22 25 26 29 32 37 40 36 38 36 43
12 16 18 9 10 9 10 9 15 17 8 11 16 19 17 11 6 12 21 19 18 13 11 9 6 2 6 6 8 11 15 15 22 23 20 19 24 37 46 41 43 45 47
10 9 18 15 14 12 10 10 13 9 7 18 9 4 5 8 15 26 26 24 17 12 10 7 9 6 8 9 14 17 18 19 21 26 25 29 31 38 44 46 47 47 50
18 23 25 22 18 15 12 11 12 12 13 11 3 2 5 13 13 4 11 19 15 9 9 8 6 6 10 14 17 19 20 23 27 30 32 33 38 39 42 46 48 51 52
20 27 33 26 15 15 21 21 19 18 15 19 29 29 15 18 11 11 5 9 14 9 9 6 5 8 13 18 23 24 27 28 30 33 36 39 44 46 46 46 47 52 55
17 20 18 33 22 21 25 24 20 22 20 23 22 19 32 21 13 12 11 8 4 5 5 6 10 15 19 24 27 29 30 32 36 41 43 45 47 47 46 49 54 58 60
23 25 25 26 24 27 26 28 24 23 24 21 15 9 18 17 18 18 14 13 7 3 8 10 15 18 23 25 27 29 31 35 41 45 49 50 49 46 42 45 50 54 55
30 32 32 28 28 33 30 36 27 29 27 26 25 21 18 17 14 16 9 13 7 7 10 13 16 19 22 26 28 30 35 37 42 45 46 45 45 41 38 42 47 50 54
35 37 36 38 36 36 31 31 30 30 33 25 23 23 20 18 16 14 11 14 11 12 14 15 17 21 26 28 30 32 35 40 42 43 47 46 45 43 40 45 46 49 50
40 46 40 39 38 40 40 36 36 33 27 26 27 26 25 23 21 18 16 14 14 10 16 18 20 23 27 30 30 34 37 41 44 44 48 48 46 41 37 42 46 50 47
Wind_Direction_500mb
194 202 189 193 200 195 194 198 196 204 202 221 218 205 212 217 226 230 215 236 234 244 229 245 255 282 261 258 269 298 320 329 332 307 306 314 341 360 337 338 352 5 346
194 202 194 184 192 205 182 208 211 220 224 224 219 216 212 217 234 236 228 226 268 285 257 262 265 282 294 300 322 324 321 321 319 323 330 324 337 342 328 326 340 350 348
203 204 207 191 186 189 209 192 217 245 235 214 215 222 223 213 233 240 231 224 221 252 263 261 273 285 290 298 273 272 270 276 286 299 324 347 335 335 327 329 341 351 330
208 204 200 195 196 193 196 206 221 232 229 231 218 223 231 232 241 247 250 241 228 233 249 261 269 268 276 285 284 293 313 298 321 318 317 323 325 318 328 339 331 322 314
219 206 218 176 195 205 195 205 220 225 232 225 220 214 228 247 236 256 246 253 249 228 238 249 270 270 259 267 276 280 291 291 293 297 298 301 297 310 319 316 304 302 310
231 237 244 200 203 226 220 218 217 213 226 224 225 229 229 237 241 245 250 245 239 262 265 248 256 280 276 296 287 287 298 294 295 302 305 308 310 305 305 304 306 312 316
222 211 211 206 213 220 220 230 237 232 229 221 223 220 229 235 239 243 241 230 234 238 249 253 256 266 284 270 267 277 292 294 299 301 301 300 305 311 307 307 309 306 305
237 236 239 233 245 252 250 244 244 233 228 226 230 235 240 244 253 253 245 245 250 252 255 266 263 258 271 271 273 276 284 288 289 290 293 297 301 307 307 303 301 300 304
194 173 186 208 226 237 239 247 246 224 217 223 229 237 248 256 257 253 253 244 247 258 259 259 268 270 272 278 281 278 277 275 281 284 287 295 303 308 321 314 314 309 311
186 187 198 229 230 244 234 227 221 215 224 230 230 239 248 260 262 240 231 224 202 136 341 316 268 272 279 295 305 308 302 308 312 312 307 308 326 326 335 325 325 326 320
210 203 175 191 192 204 212 217 197 189 235 244 218 215 228 238 244 224 211 208 195 132 105 285 305 325 327 331 338 337 333 334 339 343 360 358 358 348 330 336 337 338 339
179 170 169 169 182 190 182 197 210 211 229 228 194 182 191 198 198 199 204 214 218 215 218 249 278 297 319 322 321 327 331 332 353 0 321 327 318 299 322 324 325 333 330
184 184 167 153 190 182 180 163 155 152 108 121 96 42 312 214 199 189 193 203 219 230 250 270 286 301 307 314 320 340 1 355 340 314 311 301 303 295 301 308 298 294 291
148 168 179 155 137 138 137 147 192 179 168 171 179 165 237 267 254 239 242 247 255 272 279 284 287 295 312 5 10 7 332 283 285 282 284 290 295 303 308 311 304 304 303
111 134 177 184 195 181 183 199 192 201 191 184 190 200 206 245 262 269 268 272 273 274 272 263 243 230 230 219 220 225 242 259 263 266 283 300 302 295 296 299 316 339 324
120 124 137 200 275 232 220 221 226 223 216 212 216 225 234 246 265 278 274 260 233 187 134 34 260 257 288 299 284 274 270 274 289 295 293 290 299 305 299 303 302 296 313
131 168 173 151 182 250 303 294 246 240 233 233 240 250 253 252 252 246 215 146 134 112 92 102 81 66 43 13 11 330 317 324 329 320 337 345 340 323 313 313 301 297 289
179 187 152 140 189 205 226 268 281 324 298 245 253 245 245 242 208 152 127 111 102 119 139 157 124 133 263 282 292 302 307 318 313 323 323 307 306 308 311 317 322 326 323
172 165 163 168 185 193 215 232 236 224 229 290 320 271 165 144 157 156 150 145 147 156 150 197 196 209 269 291 307 313 325 322 314 310 304 301 298 300 312 317 315 311 308
195 199 204 186 217 212 204 223 222 221 205 240 233 92 124 102 79 83 163 151 150 168 175 222 245 286 307 319 322 326 326 322 320 318 319 318 314 314 314 315 317 319 319
222 233 218 193 185 180 200 190 220 214 207 209 224 248 239 139 182 165 169 178 172 197 214 235 307 328 334 339 341 341 338 334 326 322 320 318 319 324 326 325 323 322 321
206 254 240 211 208 207 207 203 219 203 206 215 242 251 180 152 183 186 176 184 182 181 274 337 344 342 341 340 337 334 332 328 321 321 319 318 322 325 326 328 332 334 333
211 216 240 212 194 218 216 208 210 205 211 205 234 254 178 165 193 202 208 214 194 253 315 330 330 329 328 327 326 325 324 321 321 318 316 318 323 325 324 326 328 329 331
218 221 220 226 212 225 226 221 208 212 208 208 205 203 200 215 199 224 220 255 264 281 295 309 314 315 318 322 322 320 318 322 318 317 316 317 318 317 312 316 317 323 326
223 226 223 223 220 220 221 217 219 221 213 202 211 212 208 208 205 222 212 257 286 293 305 319 323 313 319 321 317 317 325 329 326 321 319 316 317 316 309 317 322 325 331
224 225 221 223 225 227 226 220 219 224 219 210 215 215 210 213 212 213 219 232 257 268 281 286 297 312 323 326 330 331 330 331 329 324 317 316 316 314 309 320 329 327 328
Wind_Speed_850mb
47 33 35 32 26 29 24 24 30 28 23 28 24 21 25 29 23 22 26 26 28 21 29 23 14 23 31 23 17 17 16 24 36 35 41 40 31 27 33 42 38 33 31
48 44 41 35 30 18 25 16 15 26 29 31 24 28 27 23 22 24 20 18 18 16 21 23 27 25 26 25 19 19 22 24 28 31 31 34 26 26 31 40 34 32 41
48 51 43 44 41 32 23 24 19 18 15 26 26 27 28 27 28 27 25 24 23 22 15 21 22 22 26 25 24 25 24 25 29 27 28 21 30 32 30 21 20 30 36
48 49 45 40 31 29 25 22 27 20 14 14 23 22 23 21 23 21 24 24 25 18 21 21 19 23 23 29 24 21 17 27 16 25 36 35 27 18 23 31 27 28 36
55 31 16 27 25 29 26 26 27 29 22 18 17 20 16 17 24 26 25 27 19 20 22 19 23 23 22 28 31 24 25 30 27 29 35 32 30 40 45 41 39 44 46
45 46 46 20 29 31 38 36 30 28 32 31 26 25 22 33 33 33 28 21 20 19 19 21 23 21 32 23 23 24 23 29 35 37 39 39 38 41 45 44 45 47 45
28 26 25 25 26 23 18 21 26 36 35 31 28 31 37 43 37 33 28 28 26 20 22 24 25 24 18 28 32 25 24 27 29 30 38 42 47 42 43 45 45 47 55
23 21 22 18 25 33 26 26 27 32 36 33 34 39 39 40 35 35 37 34 34 37 42 30 32 36 33 32 31 35 38 36 31 35 38 42 43 47 52 56 59 61 61
17 16 13 12 17 21 26 21 27 29 32 33 32 32 23 19 24 26 27 31 31 30 32 35 37 32 33 33 34 37 37 37 33 35 40 40 40 37 38 39 40 40 48
31 21 11 11 15 19 15 13 13 30 23 23 28 29 27 26 14 11 16 18 8 2 7 8 13 16 17 17 16 16 18 23 27 27 24 24 29 30 32 33 35 37 37
24 21 20 13 12 12 19 16 15 14 19 19 17 23 24 17 14 15 17 15 8 20 13 4 10 11 10 12 14 16 19 22 22 23 29 32 27 18 21 26 35 35 34
35 41 33 25 18 19 16 16 14 19 19 11 11 11 12 13 12 11 14 16 20 22 24 21 15 8 10 15 18 20 22 23 17 22 24 23 29 25 23 29 29 30 30
28 33 33 22 22 19 25 22 17 15 8 11 11 8 3 10 10 9 7 8 11 16 12 14 15 17 18 19 21 15 18 14 21 17 15 20 21 25 28 28 27 26 30
15 17 19 20 22 21 20 22 21 24 26 19 19 17 16 24 12 11 14 16 17 20 20 21 21 14 6 5 5 3 4 14 17 18 25 30 33 31 27 30 39 42 43
14 9 10 14 17 21 23 28 29 26 30 27 26 27 22 21 11 12 19 22 24 25 22 17 16 17 18 16 18 17 19 23 23 30 32 24 24 24 23 26 30 35 40
13 11 5 1 7 14 27 32 27 23 32 35 33 36 26 32 30 24 15 9 6 6 7 6 5 11 11 9 11 13 17 24 23 23 23 25 30 30 32 25 23 26 27
13 19 11 18 8 9 11 11 18 25 26 34 38 38 33 25 17 10 5 8 16 20 16 4 10 9 7 7 9 12 14 21 22 25 26 29 32 37 40 36 38 36 43
12 16 18 9 10 9 10 9 15 17 8 11 16 19 17 11 6 12 21 19 18 13 11 9 6 2 6 6 8 11 15 15 22 23 20 19 24 37 46 41 43 45 47
10 9 18 15 14 12 10 10 13 9 7 18 9 4 5 8 15 26 26 24 17 12 10 7 9 6 8 9 14 17 18 19 21 26 25 29 31 38 44 46 47 47 50
18 23 25 22 18 15 12 11 12 12 13 11 3 2 5 13 13 4 11 19 15 9 9 8 6 6 10 14 17 19 20 23 27 30 32 33 38 39 42 46 48 51 52
20 27 33 26 15 15 21 21 19 18 15 19 29 29 15 18 11 11 5 9 14 9 9 6 5 8 13 18 23 24 27 28 30 33 36 39 44 46 46 46 47 52 55
17 20 18 33 22 21 25 24 20 22 20 23 22 19 32 21 13 12 11 8 4 5 5 6 10 15 19 24 27 29 30 32 36 41 43 45 47 47 46 49 54 58 60
23 25 25 26 24 27 26 28 24 23 24 21 15 9 18 17 18 18 14 13 7 3 8 10 15 18 23 25 27 29 31 35 41 45 49 50 49 46 42 45 50 54 55
30 32 32 28 28 33 30 36 27 29 27 26 25 21 18 17 14 16 9 13 7 7 10 13 16 19 22 26 28 30 35 37 42 45 46 45 45 41 38 42 47 50 54
35 37 36 38 36 36 31 31 30 30 33 25 23 23 20 18 16 14 11 14 11 12 14 15 17 21 26 28 30 32 35 40 42 43 47 46 45 43 40 45 46 49 50
40 46 40 39 38 40 40 36 36 33 27 26 27 26 25 23 21 18 16 14 14 10 16 18 20 23 27 30 30 34 37 41 44 44 48 48 46 41 37 42 46 50 47
Wind_Direction_850mb
194 202 189 193 200 195 194 198 196 204 202 221 218 205 212 217 226 230 215 236 234 244 229 245 255 282 261 258 269 298 320 329 332 307 306 314 341 360 337 338 352 5 346
194 202 194 184 192 205 182 208 211 220 224 224 219 216 212 217 234 236 228 226 268 285 257 262 265 282 294 300 322 324 321 321 319 323 330 324 337 342 328 326 340 350 348
203 204 207 191 186 189 209 192 217 245 235 214 215 222 223 213 233 240 231 224 221 252 263 261 273 285 290 298 273 272 270 276 286 299 324 347 335 335 327 329 341 351 330
208 204 200 195 196 193 196 206 221 232 229 231 218 223 231 232 241 247 250 241 228 233 249 261 269 268 276 285 284 293 313 298 321 318 317 323 325 318 328 339 331 322 314
219 206 218 176 195 205 195 205 220 225 232 225 220 214 228 247 236 256 246 253 249 228 238 249 270 270 259 267 276 280 291 291 293 297 298 301 297 310 319 316 304 302 310
231 237 244 200 203 226 220 218 217 213 226 224 225 229 229 237 241 245 250 245 239 262 265 248 256 280 276 296 287 287 298 294 295 302 305 308 310 305 305 304 306 312 316
222 211 211 206 213 220 220 230 237 232 229 221 223 220 229 235 239 243 241 230 234 238 249 253 256 266 284 270 267 277 292 294 299 301 301 300 305 311 307 307 309 306 305
237 236 239 233 245 252 250 244 244 233 228 226 230 235 240 244 253 253 245 245 250 252 255 266 263 258 271 271 273 276 284 288 289 290 293 297 301 307 307 303 301 300 304
194 173 186 208 226 237 239 247 246 224 217 223 229 237 248 256 257 253 253 244 247 258 259 259 268 270 272 278 281 278 277 275 281 284 287 295 303 308 321 314 314 309 311
186 187 198 229 230 244 234 227 221 215 224 230 230 239 248 260 262 240 231 224 202 136 341 316 268 272 279 295 305 308 302 308 312 312 307 308 326 326 335 325 325 326 320
210 203 175 191 192 204 212 217 197 189 235 244 218 215 228 238 244 224 211 208 195 132 105 285 305 325 327 331 338 337 333 334 339 343 360 358 358 348 330 336 337 338 339
179 170 169 169 182 190 182 197 210 211 229 228 194 182 191 198 198 199 204 214 218 215 218 249 278 297 319 322 321 327 331 332 353 0 321 327 318 299 322 324 325 333 330
184 184 167 153 190 182 180 163 155 152 108 121 96 42 312 214 199 189 193 203 219 230 250 270 286 301 307 314 320 340 1 355 340 314 311 301 303 295 301 308 298 294 291
148 168 179 155 137 138 137 147 192 179 168 171 179 165 237 267 254 239 242 247 255 272 279 284 287 295 312 5 10 7 332 283 285 282 284 290 295 303 308 311 304 304 303
111 134 177 184 195 181 183 199 192 201 191 184 190 200 206 245 262 269 268 272 273 274 272 263 243 230 230 219 220 225 242 259 263 266 283 300 302 295 296 299 316 339 324
120 124 137 200 275 232 220 221 226 223 216 212 216 225 234 246 265 278 274 260 233 187 134 34 260 257 288 299 284 274 270 274 289 295 293 290 299 305 299 303 302 296 313
131 168 173 151 182 250 303 294 246 240 233 233 240 250 253 252 252 246 215 146 134 112 92 102 81 66 43 13 11 330 317 324 329 320 337 345 340 323 313 313 301 297 289
179 187 152 140 189 205 226 268 281 324 298 245 253 245 245 242 208 152 127 111 102 119 139 157 124 133 263 282 292 302 307 318 313 323 323 307 306 308 311 317 322 326 323
172 165 163 168 185 193 215 232 236 224 229 290 320 271 165 144 157 156 150 145 147 156 150 197 196 209 269 291 307 313 325 322 314 310 304 301 298 300 312 317 315 311 308
195 199 204 186 217 212 204 223 222 221 205 240 233 92 124 102 79 83 163 151 150 168 175 222 245 286 307 319 322 326 326 322 320 318 319 318 314 314 314 315 317 319 319
222 233 218 193 185 180 200 190 220 214 207 209 224 248 239 139 182 165 169 178 172 197 214 235 307 328 334 339 341 341 338 334 326 322 320 318 319 324 326 325 323 322 321
206 254 240 211 208 207 207 203 219 203 206 215 242 251 180 152 183 186 176 184 182 181 274 337 344 342 341 340 337 334 332 328 321 321 319 318 322 325 326 328 332 334 333
211 216 240 212 194 218 216 208 210 205 211 205 234 254 178 165 193 202 208 214 194 253 315 330 330 329 328 327 326 325 324 321 321 318 316 318 323 325 324 326 328 329 331
218 221 220 226 212 225 226 221 208 212 208 208 205 203 200 215 199 224 220 255 264 281 295 309 314 315 318 322 322 320 318 322 318 317 316 317 318 317 312 316 317 323 326
223 226 223 223 220 220 221 217 219 221 213 202 211 212 208 208 205 222 212 257 286 293 305 319 323 313 319 321 317 317 325 329 326 321 319 316 317 316 309 317 322 325 331
224 225 221 223 225 227 226 220 219 224 219 210 215 215 210 213 212 213 219 232 257 268 281 286 297 312 323 326 330 331 330 331 329 324 317 316 316 314 309 320 329 327 328